Dalhart, TX

11:28 PM CST on January 20, 2018 (GMT -0600)
Dalhart Municipal

Weather History for KDHT - January, 2014

Change the Weather History Date:

Friday, January 17, 2014

  Actual Average Record
Temperature  
Mean Temperature 35 °F 35 °F  
Max Temperature 54 °F 50 °F 76 °F (1974)
Min Temperature 15 °F 19 °F 1 °F (2008)
Degree Days  
Heating Degree Days 30 30  
Month to date heating degree days 501 521  
Since 1 July heating degree days 2436 2464  
Cooling Degree Days 0 0  
Month to date cooling degree days 0 0  
Year to date cooling degree days 0 0  
Moisture  
Dew Point 15 °F    
Average Humidity 51    
Maximum Humidity 80    
Minimum Humidity 22    
Precipitation  
Precipitation 0.00 in 0.02 in 0.22 in (1984)
Month to date precipitation T 0.25  
Year to date precipitation T 0.25  
Snow  
Snow 0.00 in 0.10 in 2.60 in (1984)
Month to date snowfall 1.5 2.1  
Since 1 July snowfall 11.0 8.3  
Snow Depth 0.00 in    
Sea Level Pressure  
Sea Level Pressure 30.22 in    
Wind  
Wind Speed 11 mph (WSW)    
Max Wind Speed 28 mph    
Max Gust Speed 34 mph    
Visibility 10 miles    
Events      
T = Trace of Precipitation, MM = Missing Value Source: NWS Daily Summary

Daily Weather History Graph

Daily Weather History Graph

Search for Another Location

Airport or City:

Trip Planner

Search our weather history database for the weather conditions in past years. The results will help you decide how hot, cold, wet, or windy it might be!

Date:

Astronomy

Jan. 17, 2014 Rise Set
Actual Time 7:59 AM CST 6:01 PM CST
Civil Twilight 7:31 AM CST 6:29 PM CST
Nautical Twilight 7:00 AM CST 7:00 PM CST
Astronomical Twilight 6:29 AM CST 7:31 PM CST
Moon 7:45 PM CST (1/17) 8:32 AM CST (1/17)
Length of Visible Light 10h 57m
Length of Day
10h 02m
Full, 98% of the Moon is Illuminated
Jan 17
Full
Jan 23
Last Quarter
Jan 30
New
Feb 6
First Quarter
Feb 14
Full

Hourly Weather History & Observations

Time (CST) Temp. Windchill Dew Point Humidity Pressure Visibility Wind Dir Wind Speed Gust Speed Precip Events Conditions
12:53 AM 30.0 °F 23.2 °F 15.1 °F 54% 30.31 in 10.0 mi NW 6.9 mph - N/A   Partly Cloudy
1:53 AM 28.0 °F 20.0 °F 15.1 °F 58% 30.30 in 10.0 mi NW 8.1 mph - N/A   Clear
2:53 AM 25.0 °F 16.3 °F 15.1 °F 66% 30.31 in 10.0 mi WNW 8.1 mph - N/A   Clear
3:53 AM 25.0 °F 17.1 °F 15.1 °F 66% 30.30 in 10.0 mi NW 6.9 mph - N/A   Clear
4:53 AM 23.0 °F 13.9 °F 14.0 °F 68% 30.30 in 10.0 mi NW 8.1 mph - N/A   Clear
5:53 AM 19.9 °F 9.3 °F 12.9 °F 74% 30.32 in 10.0 mi WNW 9.2 mph - N/A   Clear
6:53 AM 21.9 °F 14.5 °F 14.0 °F 72% 30.33 in 10.0 mi WNW 5.8 mph - N/A   Clear
7:53 AM 17.1 °F 10.0 °F 12.0 °F 81% 30.36 in 10.0 mi SSW 4.6 mph - N/A   Clear
8:53 AM 24.1 °F 18.2 °F 16.0 °F 71% 30.34 in 9.0 mi WSW 4.6 mph - N/A   Clear
9:53 AM 36.0 °F 28.0 °F 19.0 °F 50% 30.30 in 10.0 mi West 11.5 mph - N/A   Clear
10:53 AM 44.1 °F 35.9 °F 17.1 °F 34% 30.29 in 10.0 mi WSW 19.6 mph 26.5 mph N/A   Clear
11:53 AM 48.0 °F - 15.1 °F 27% 30.25 in 10.0 mi WSW 24.2 mph 33.4 mph N/A   Clear
12:53 PM 50.0 °F - 15.1 °F 25% 30.19 in 10.0 mi WSW 20.7 mph 28.8 mph N/A   Clear
1:53 PM 52.0 °F - 16.0 °F 24% 30.14 in 10.0 mi WSW 21.9 mph 26.5 mph N/A   Clear
2:53 PM 53.1 °F - 16.0 °F 23% 30.12 in 10.0 mi WSW 19.6 mph - N/A   Clear
3:53 PM 54.0 °F - 15.1 °F 22% 30.12 in 10.0 mi WSW 12.7 mph 20.7 mph N/A   Clear
4:53 PM 53.1 °F - 15.1 °F 22% 30.12 in 10.0 mi SW 11.5 mph - N/A   Clear
5:53 PM 45.0 °F 39.7 °F 15.1 °F 30% 30.13 in 10.0 mi SW 10.4 mph - N/A   Clear
6:53 PM 34.0 °F 26.0 °F 15.1 °F 46% 30.16 in 10.0 mi SW 10.4 mph - N/A   Clear
7:53 PM 32.0 °F 24.8 °F 15.1 °F 50% 30.17 in 10.0 mi WSW 8.1 mph - N/A   Clear
8:53 PM 36.0 °F 29.6 °F 16.0 °F 44% 30.14 in 10.0 mi West 8.1 mph - N/A   Clear
9:53 PM 30.9 °F 23.5 °F 15.1 °F 52% 30.12 in 10.0 mi West 8.1 mph - N/A   Clear
10:53 PM 30.0 °F 26.5 °F 15.1 °F 54% 30.10 in 10.0 mi WSW 3.5 mph - N/A   Clear
11:53 PM 27.0 °F 19.5 °F 16.0 °F 63% 30.07 in 10.0 mi West 6.9 mph - N/A   Clear